Weather History for KGZH - September, 2012

Change the Weather History Date:

Friday, September 28, 2012

  Actual Average (KPRN) Record (KPRN)
Temperature  
Mean Temperature 76 °F -  
Max Temperature 90 °F 83 °F 96 °F (1954)
Min Temperature 64 °F 61 °F 32 °F (2011)
Cooling Degree Days 12    
Growing Degree Days 26 (Base 50)    
Moisture  
Dew Point 68 °F    
Average Humidity 84    
Maximum Humidity 100    
Minimum Humidity 50    
Precipitation  
Precipitation 0.00 in - - ()
Sea Level Pressure  
Sea Level Pressure 30.07 in    
Wind  
Wind Speed 0 mph (SSE)    
Max Wind Speed 4 mph    
Max Gust Speed -    
Visibility 6 miles    
Events Fog    
Averages and records for this station are not official NWS values.
T = Trace of Precipitation, MM = Missing Value Source: NWS Daily Summary

Daily Weather History Graph

Daily Weather History Graph

Search for Another Location

Airport or City:

Trip Planner

Search our weather history database for the weather conditions in past years. The results will help you decide how hot, cold, wet, or windy it might be!

Date:

Astronomy

Sep. 28, 2012 Rise Set
Actual Time 6:40 AM CDT 6:36 PM CDT
Civil Twilight 6:16 AM CDT 7:00 PM CDT
Nautical Twilight 5:47 AM CDT 7:28 PM CDT
Astronomical Twilight 5:19 AM CDT 7:57 PM CDT
Moon 5:37 PM CDT 5:13 AM CDT
Length of Visible Light 12h 44m
Length of Day
11h 56m
Waxing Gibbous, 98% of the Moon is Illuminated
Sep 28
Waxing Gibbous
Sep 29
Full
Oct 8
Last Quarter
Oct 15
New
Oct 21
First Quarter

Hourly Weather History & Observations

Time (CDT) Temp. Heat Index Dew Point Humidity Pressure Visibility Wind Dir Wind Speed Gust Speed Precip Events Conditions
12:45 AM 68.0 °F - 66.2 °F 94% 30.11 in 5.0 mi Calm Calm - N/A   Partly Cloudy
12:53 AM 68.0 °F - 64.9 °F 90% 30.10 in 4.0 mi Calm Calm - N/A   Partly Cloudy
1:16 AM 66.2 °F - 64.4 °F 94% 30.10 in 1.2 mi Calm Calm - N/A   Partly Cloudy
1:21 AM 66.2 °F - 64.4 °F 94% 30.10 in 3.0 mi Calm Calm - N/A   Partly Cloudy
1:39 AM 66.2 °F - 64.4 °F 94% 30.10 in 3.0 mi Calm Calm - N/A   Mostly Cloudy
1:43 AM 66.2 °F - 64.4 °F 94% 30.10 in 1.8 mi Calm Calm - N/A   Mostly Cloudy
1:53 AM 66.9 °F - 64.9 °F 93% 30.09 in 0.2 mi Calm Calm - N/A Fog Fog
2:53 AM 66.0 °F - 64.0 °F 93% 30.08 in 0.2 mi Calm Calm - N/A Fog Fog
3:53 AM 64.9 °F - 64.0 °F 97% 30.07 in 0.5 mi Calm Calm - N/A Fog Fog
4:53 AM 66.0 °F - 64.0 °F 93% 30.07 in 0.2 mi Calm Calm - N/A Fog Fog
5:53 AM 66.0 °F - 64.0 °F 93% 30.09 in 0.2 mi Calm Calm - N/A Fog Fog
6:53 AM 64.9 °F - 64.0 °F 97% 30.10 in 0.2 mi Calm Calm - N/A Fog Fog
7:53 AM 66.9 °F - 64.9 °F 93% 30.11 in 0.2 mi Calm Calm - N/A Fog Fog
8:43 AM 69.8 °F - 69.8 °F 100% 30.12 in 1.8 mi Calm Calm - N/A   Overcast
8:49 AM 71.6 °F - 69.8 °F 94% 30.12 in 3.0 mi Calm Calm - N/A   Mostly Cloudy
8:53 AM 71.1 °F - 69.1 °F 93% 30.12 in 4.0 mi Calm Calm - N/A   Mostly Cloudy
9:02 AM 71.6 °F - 69.8 °F 94% 30.12 in 6.0 mi Calm Calm - N/A   Scattered Clouds
9:53 AM 80.1 °F 83.6 °F 71.1 °F 74% 30.11 in 10.0 mi Calm Calm - N/A   Clear
10:53 AM 84.0 °F 87.0 °F 68.0 °F 58% 30.11 in 10.0 mi Calm Calm - N/A   Clear
11:53 AM 84.9 °F 88.2 °F 68.0 °F 57% 30.10 in 10.0 mi South 3.5 mph - N/A   Partly Cloudy
12:53 PM 89.1 °F 93.7 °F 69.1 °F 52% 30.07 in 10.0 mi Calm Calm - N/A   Mostly Cloudy
2:53 PM 89.1 °F 92.9 °F 68.0 °F 50% 30.01 in 10.0 mi Calm Calm - N/A   Partly Cloudy
3:53 PM 89.1 °F 92.9 °F 68.0 °F 50% 30.00 in 10.0 mi NE 3.5 mph - N/A   Scattered Clouds
4:53 PM 87.1 °F 89.9 °F 66.9 °F 51% 29.99 in 10.0 mi Calm Calm - N/A   Partly Cloudy
5:53 PM 81.0 °F 85.2 °F 72.0 °F 74% 30.00 in 10.0 mi Calm Calm - N/A   Scattered Clouds
6:53 PM 77.0 °F - 73.0 °F 88% 30.00 in 10.0 mi Calm Calm - N/A   Clear
7:53 PM 75.0 °F - 72.0 °F 90% 30.01 in 10.0 mi Calm Calm - N/A   Partly Cloudy
8:53 PM 73.9 °F - 72.0 °F 93% 30.02 in 9.0 mi Calm Calm - N/A   Mostly Cloudy
9:53 PM 73.0 °F - 71.1 °F 93% 30.03 in 9.0 mi South 3.5 mph - N/A   Clear
10:53 PM 73.9 °F - 70.0 °F 87% 30.03 in 10.0 mi Calm Calm - N/A   Clear
11:53 PM 73.0 °F - 70.0 °F 90% 30.03 in 8.0 mi Calm Calm - N/A   Clear